Dewpoint
60 64 70 71 71 72 71 71 72 72 72 71 71 69 68 68 68 67 66 66 65 65 65 64 63 61 62 62 62 65 67 65 63 67 68 68 65 62 59 61 65 62 66
60 64 70 70 71 72 72 72 72 72 72 71 69 69 68 67 67 66 65 65 64 65 64 63 62 62 62 62 63 63 63 61 64 66 68 68 68 67 66 65 66 60 63
60 63 67 70 71 72 72 70 72 72 71 69 68 67 66 66 65 65 65 64 64 64 63 62 63 62 61 61 60 60 59 61 63 64 65 63 63 67 67 67 67 66 66
58 61 64 71 71 72 72 71 72 71 70 68 67 66 65 65 65 65 64 64 64 63 62 63 62 61 61 60 59 63 65 65 64 66 56 59 59 63 64 65 66 67 67
57 61 63 71 71 72 72 71 72 71 70 67 66 65 65 65 65 64 64 63 63 63 62 62 61 61 61 62 65 64 62 61 63 59 57 58 59 60 63 63 63 63 65
57 60 68 70 71 72 72 71 72 70 68 66 66 65 65 65 64 63 62 62 62 62 62 62 61 61 64 64 63 63 61 61 63 54 55 59 61 61 61 62 62 62 62
58 59 67 71 72 72 72 72 71 70 67 66 66 65 64 64 63 61 61 61 62 62 62 61 61 62 64 64 63 62 60 62 53 54 60 64 61 64 65 65 64 64 65
58 58 64 69 71 71 72 71 70 69 67 66 65 65 64 63 62 60 60 61 62 62 62 61 61 61 64 64 62 61 61 62 53 53 60 62 64 61 61 60 60 61 61
61 58 62 64 69 70 70 70 69 68 67 67 66 65 64 62 61 59 60 60 62 62 62 61 61 61 62 63 62 62 61 61 51 53 54 57 62 60 59 58 58 59 59
62 59 60 63 68 68 68 68 68 67 66 66 65 65 64 63 62 61 62 62 62 62 61 61 61 61 62 63 62 62 61 60 54 56 56 56 59 58 58 58 57 57 57
63 59 62 67 67 67 66 66 66 66 66 65 64 63 60 55 56 56 59 62 63 63 62 61 61 61 63 63 63 62 61 49 50 53 53 58 58 57 56 56 59 58 58
63 59 63 67 67 66 65 64 63 62 61 59 59 57 51 52 53 53 57 62 63 63 63 62 62 61 60 57 56 59 51 48 51 52 54 59 57 57 57 57 57 56 55
63 59 65 67 67 65 63 63 62 61 59 56 54 51 48 49 51 52 54 55 56 58 57 59 58 53 50 53 54 50 48 48 50 55 58 60 57 56 56 56 56 55 55
63 61 65 67 65 63 62 61 59 58 55 54 53 47 48 48 49 50 50 52 52 52 54 55 50 48 49 50 49 47 46 48 51 54 56 59 57 56 56 56 56 55 55
62 63 66 66 65 62 61 59 56 55 54 52 51 47 45 47 47 48 48 48 48 48 47 47 47 48 47 47 45 44 45 47 48 52 54 58 58 56 55 56 56 56 55
61 62 65 65 64 63 59 56 55 53 52 49 48 45 43 45 46 45 45 45 44 45 45 45 46 47 47 47 44 44 44 46 47 49 52 53 57 56 55 55 53 54 55
61 63 63 64 64 62 59 57 54 51 45 44 44 42 42 43 45 45 44 45 45 45 44 45 45 47 48 47 45 45 45 45 46 46 48 47 50 54 53 53 55 55 55
61 62 62 64 63 62 59 57 52 49 41 42 44 44 42 43 45 45 45 44 44 47 47 47 47 48 49 50 47 47 47 45 45 45 45 44 45 43 51 53 54 55 55
61 62 61 61 62 62 59 56 51 45 42 42 43 44 44 43 44 45 45 45 45 47 47 46 47 48 48 50 49 49 47 46 46 45 43 43 43 45 46 51 52 52 53
62 61 57 55 54 55 56 53 48 44 43 43 43 43 43 45 45 47 46 45 45 46 44 45 45 47 48 50 46 47 48 46 46 45 42 40 42 44 44 46 48 47 49
56 53 53 53 52 52 52 52 47 45 45 45 45 45 44 44 45 47 47 46 47 46 44 42 45 47 48 48 48 48 47 45 43 43 44 41 41 42 43 45 45 45 44
56 54 53 51 51 51 52 52 48 47 47 47 48 47 47 46 47 47 47 46 46 46 44 43 45 46 48 47 46 45 42 42 41 41 41 40 39 40 41 40 39 39 41
56 55 53 52 52 52 54 53 51 48 47 47 47 48 47 46 48 48 47 46 45 46 45 45 47 47 47 47 47 43 41 40 41 42 40 39 39 37 41 39 36 34 34
57 56 54 53 54 55 54 52 50 48 45 46 47 48 48 47 48 48 48 45 46 45 45 46 46 47 48 47 47 41 43 43 42 40 43 41 40 33 38 37 35 33 32
59 56 55 55 55 55 53 52 52 51 48 46 47 48 48 48 49 49 48 46 45 46 47 46 47 47 47 45 46 44 42 43 41 43 40 42 41 36 35 34 33 33 34
57 57 56 56 56 56 54 54 52 52 48 45 47 48 48 48 49 49 48 46 45 45 46 45 47 47 45 44 44 42 39 37 36 37 38 40 37 33 31 35 36 35 36
Lifted_Index
-1 -2 -2 -2 -2 -2 -2 -2 -2 -2 -2 -2 -1 0 1 1 2 2 2 3 3 3 3 4 4 5 5 5 4 3 3 4 4 3 2 2 3 4 5 5 4 4 3
-1 -1 -2 -2 -2 -2 -2 -2 -2 -2 -2 -1 -0 1 1 2 2 2 3 3 3 3 4 4 4 5 5 5 5 4 4 4 4 3 2 2 2 3 3 4 4 3 3
-1 -1 -2 -2 -3 -3 -3 -2 -2 -2 -1 -0 0 1 2 2 3 3 3 3 4 4 4 4 4 5 5 5 5 5 5 5 4 3 3 3 3 3 3 3 3 3 3
-1 -1 -2 -2 -3 -3 -3 -2 -2 -2 -1 0 1 2 2 3 3 3 3 4 4 4 4 4 5 5 5 6 5 5 4 4 4 4 4 4 4 4 4 3 3 3 3
-1 -1 -2 -3 -3 -3 -3 -2 -2 -1 -0 1 2 2 3 3 3 4 4 4 4 4 4 5 5 5 5 5 4 4 4 4 5 5 5 5 5 5 5 4 4 4 4
-1 -1 -2 -3 -3 -3 -3 -2 -2 -1 0 1 2 2 3 3 4 4 5 5 5 5 4 5 5 5 4 4 4 4 5 5 6 6 5 5 5 5 5 5 5 5 5
-1 -1 -2 -3 -4 -4 -3 -3 -2 -1 0 1 2 2 3 3 4 5 5 5 5 5 4 5 5 4 4 4 4 5 6 6 6 6 5 4 4 4 5 5 5 5 5
-2 -1 -2 -3 -3 -3 -3 -2 -1 -0 0 1 2 2 3 4 5 6 6 6 5 5 4 5 5 5 4 4 5 6 6 7 7 6 5 4 4 5 6 6 6 6 6
-2 -2 -1 -2 -3 -3 -3 -2 -1 0 1 1 2 3 4 5 6 6 6 6 5 5 5 5 5 5 4 4 5 6 7 7 7 6 6 6 6 6 7 7 7 7 7
-2 -2 -2 -2 -3 -3 -2 -1 -0 1 1 2 3 4 5 6 6 6 6 5 5 5 5 5 5 5 5 5 5 6 7 8 7 7 7 7 7 7 8 8 8 8 8
-2 -2 -2 -3 -3 -2 -2 -1 0 1 2 3 4 5 6 7 7 7 6 6 5 5 5 5 5 5 5 5 6 7 8 8 8 7 7 7 7 8 8 8 8 8 8
-3 -3 -3 -4 -3 -2 -1 -0 1 2 3 4 5 6 7 7 7 7 7 6 6 5 5 5 5 6 6 6 7 7 8 8 8 8 8 7 8 8 8 8 8 9 9
-3 -3 -4 -4 -3 -2 -1 0 1 2 4 5 6 7 8 8 8 8 8 7 7 6 6 6 7 7 7 7 7 8 8 8 8 8 8 8 8 8 8 8 9 9 9
-3 -3 -4 -4 -3 -2 -1 0 2 3 4 6 7 8 9 9 9 8 8 8 8 8 7 7 8 8 8 8 8 9 9 9 8 8 8 8 8 8 9 9 9 9 9
-3 -3 -3 -3 -3 -2 -1 1 3 4 5 7 8 9 10 10 9 9 9 9 9 9 9 9 9 9 9 9 9 10 10 9 9 9 9 9 9 9 9 9 9 9 9
-3 -2 -2 -3 -3 -2 -1 2 3 5 7 8 9 10 11 11 10 10 10 11 11 10 10 10 9 9 9 9 10 10 10 10 10 10 10 10 10 10 10 10 10 10 9
-2 -2 -1 -2 -2 -2 -0 2 4 6 8 10 10 11 11 11 11 11 11 11 11 11 11 10 10 9 9 9 9 10 10 10 10 10 11 12 12 12 12 11 11 10 10
-2 -1 -0 -1 -1 -1 -0 2 5 7 10 11 11 11 11 12 11 11 11 12 12 11 11 11 10 9 9 9 9 9 10 10 10 11 12 13 13 14 13 13 12 11 11
-2 -1 0 1 0 -0 0 2 5 8 10 11 11 11 11 11 11 11 11 12 12 12 12 11 10 10 9 9 9 10 10 11 11 11 13 14 15 15 15 14 14 14 13
-3 -1 1 3 3 2 2 3 6 9 10 11 11 11 11 11 11 11 11 12 12 12 12 12 11 10 9 9 10 10 11 11 12 12 13 14 15 16 16 15 15 16 16
-3 -2 0 2 3 3 4 5 7 8 10 10 11 11 11 11 11 11 11 12 12 12 13 13 12 11 10 10 10 11 11 12 12 13 14 15 15 16 16 16 17 17 17
-2 -2 -1 1 3 4 5 7 8 9 9 10 10 10 11 11 11 11 11 12 12 12 13 13 12 11 10 10 11 11 11 12 13 14 14 15 15 15 16 17 18 19 19
-2 -2 -1 -0 2 4 5 7 8 9 9 10 10 10 10 10 10 11 11 12 12 12 12 12 12 11 11 11 11 11 11 12 12 13 14 14 15 15 16 18 19 20 21
-2 -2 -2 -1 1 3 4 6 7 8 8 8 9 9 9 10 10 10 11 12 12 12 12 12 12 11 11 11 11 12 12 12 12 13 13 14 14 15 16 18 20 21 21
-2 -2 -1 -1 -0 1 2 4 5 6 6 7 8 9 9 9 9 10 11 11 12 12 12 12 12 12 12 12 12 12 13 13 12 12 13 13 14 15 17 18 20 21 21
-2 -1 -1 -1 -1 -0 1 3 4 5 5 5 7 8 9 9 9 10 11 11 12 12 12 12 12 12 12 12 13 13 13 13 13 13 13 13 14 15 17 19 20 20 21